Weather History for Arctic Village, AK

Change the Weather History Date:

Monday, April 22, 2013

  Actual Average Record
Temperature  
Mean Temperature 18 °F -  
Max Temperature 37 °F 35 °F 45 °F (1993)
Min Temperature -2 °F 2 °F -27 °F (1972)
Degree Days  
Heating Degree Days 48    
Moisture  
Dew Point 3 °F    
Average Humidity 50    
Maximum Humidity 100    
Minimum Humidity 30    
Precipitation  
Precipitation 0.00 in - - ()
Sea Level Pressure  
Sea Level Pressure 30.18 in    
Wind  
Wind Speed 3 mph (WSW)    
Max Wind Speed 17 mph    
Max Gust Speed 23 mph    
Visibility 10 miles    
Events      
Averages and records for this station are not official NWS values.
T = Trace of Precipitation, MM = Missing Value Source: NWS Daily Summary

Daily Weather History Graph

Daily Weather History Graph

Search for Another Location

Airport:

Trip Planner

Search our weather history database for the weather conditions in past years. The results will help you decide how hot, cold, wet, or windy it might be!

Date:

Astronomy

Apr. 22, 2013 Rise Set
Actual Time 5:17 AM AKDT 10:07 PM AKDT
Civil Twilight 3:55 AM AKDT 11:31 PM AKDT
Nautical Twilight Sun does not rise Sun does not rise
Astronomical Twilight Sun does not rise Sun does not rise
Moon 5:45 PM AKDT (4/22) 4:52 AM AKDT (4/22)
Length of Visible Light 19h 35m
Length of Day
16h 49m
Waxing Gibbous, 89% of the Moon is Illuminated
Apr 22
Waxing Gibbous
Apr 25
Full
May 2
Last Quarter
May 9
New
May 17
First Quarter

Hourly Weather History & Observations

Time (AKDT) Temp. Windchill Dew Point Humidity Pressure Visibility Wind Dir Wind Speed Gust Speed Precip Events Conditions
12:16 AM 15.8 °F - 6.8 °F 68% 30.22 in 10.0 mi Calm Calm - N/A   Clear
12:36 AM 15.8 °F - 1.4 °F 53% 30.21 in 10.0 mi Calm Calm - N/A   Clear
12:56 AM 15.8 °F 10.2 °F -0.4 °F 49% 30.21 in 10.0 mi NNW 3.5 mph - N/A   Clear
1:16 AM 6.8 °F - -2.2 °F 67% 30.22 in 10.0 mi Calm Calm - N/A   Clear
1:36 AM 10.4 °F - -5.8 °F 48% 30.22 in 10.0 mi Calm Calm - N/A   Clear
1:56 AM 8.6 °F - 3.2 °F 79% 30.22 in 10.0 mi Calm Calm - N/A   Clear
2:16 AM 8.6 °F - 3.2 °F 79% 30.22 in 10.0 mi Calm Calm - N/A   Clear
2:36 AM 3.2 °F - -5.8 °F 66% 30.22 in 10.0 mi Calm Calm - N/A   Clear
2:56 AM 6.8 °F - 6.8 °F 100% 30.22 in 10.0 mi Calm Calm - N/A   Clear
3:16 AM 8.6 °F - - N/A% 30.22 in 10.0 mi Calm Calm - N/A   Clear
3:36 AM 5.0 °F - -7.6 °F 56% 30.22 in 10.0 mi Calm Calm - N/A   Clear
3:56 AM 3.2 °F -4.2 °F -16.6 °F 39% 30.22 in 10.0 mi NNE 3.5 mph - N/A   Clear
4:16 AM -2.2 °F - -2.2 °F 100% 30.21 in 10.0 mi Calm Calm - N/A   Clear
4:36 AM -0.4 °F -8.3 °F -13.0 °F 55% 30.21 in 10.0 mi East 3.5 mph - N/A   Clear
4:56 AM -0.4 °F -8.3 °F -23.8 °F 32% 30.21 in 9.0 mi NNE 3.5 mph - N/A   Clear
5:16 AM -0.4 °F - - N/A% 30.21 in 10.0 mi Calm Calm - N/A   Clear
5:36 AM 1.4 °F - -20.2 °F 36% 30.21 in 10.0 mi Calm Calm - N/A   Clear
5:56 AM 3.2 °F - -9.4 °F 56% 30.21 in 10.0 mi Calm Calm - N/A   Clear
6:16 AM 3.2 °F - - N/A% 30.21 in 10.0 mi Calm Calm - N/A   Clear
6:36 AM -0.4 °F - -22.0 °F 36% 30.21 in 10.0 mi Calm Calm - N/A   Clear
6:56 AM -0.4 °F - -0.4 °F 100% 30.21 in 10.0 mi Calm Calm - N/A   Clear
7:16 AM 1.4 °F - 1.4 °F 100% 30.20 in 10.0 mi Calm Calm - N/A   Clear
7:36 AM 1.4 °F - -22.0 °F 33% 30.20 in 10.0 mi Calm Calm - N/A   Clear
7:56 AM 1.4 °F - -9.4 °F 61% 30.20 in 10.0 mi Calm Calm - N/A   Clear
8:16 AM 1.4 °F - 1.4 °F 100% 30.20 in 10.0 mi Calm Calm - N/A   Clear
8:36 AM 5.0 °F - -20.2 °F 30% 30.19 in 10.0 mi Calm Calm - N/A   Clear
8:56 AM 5.0 °F - -7.6 °F 56% 30.19 in 10.0 mi Calm Calm - N/A   Clear
9:16 AM 6.8 °F - - N/A% 30.19 in 10.0 mi Calm Calm - N/A   Clear
9:36 AM 10.4 °F - -5.8 °F 48% 30.18 in 10.0 mi Calm Calm - N/A   Clear
9:56 AM 12.2 °F - -11.2 °F 34% 30.18 in 10.0 mi Calm Calm - N/A   Clear
10:16 AM 15.8 °F - -4.0 °F 41% 30.18 in 10.0 mi Calm Calm - N/A   Clear
10:36 AM 15.8 °F - 12.2 °F 86% 30.18 in 10.0 mi Calm Calm - N/A   Clear
10:56 AM 17.6 °F - 1.4 °F 49% 30.18 in 10.0 mi Calm Calm - N/A   Clear
11:16 AM 17.6 °F - -4.0 °F 38% 30.18 in 10.0 mi Calm Calm - N/A   Clear
11:36 AM 19.4 °F - -0.4 °F 42% 30.18 in 10.0 mi Calm Calm - N/A   Clear
11:56 AM 21.2 °F - 5.0 °F 50% 30.18 in 10.0 mi Calm Calm - N/A   Clear
12:16 PM 21.2 °F 16.4 °F 6.8 °F 54% 30.18 in 10.0 mi ESE 3.5 mph - N/A   Clear
12:36 PM 23.0 °F - 3.2 °F 43% 30.18 in 10.0 mi Calm Calm - N/A   Clear
12:56 PM 24.8 °F - 5.0 °F 43% 30.17 in 10.0 mi Calm Calm - N/A   Clear
1:16 PM 26.6 °F - 6.8 °F 43% 30.17 in 10.0 mi Calm Calm - N/A   Clear
1:36 PM 28.4 °F - 8.6 °F 43% 30.17 in 10.0 mi Calm Calm - N/A   Clear
1:56 PM 30.2 °F 25.4 °F 6.8 °F 37% 30.18 in 10.0 mi ENE 4.6 mph - N/A   Clear
2:16 PM 30.2 °F 24.3 °F 8.6 °F 40% 30.18 in 10.0 mi NNW 5.8 mph - N/A   Clear
2:36 PM 33.8 °F 26.4 °F 14.0 °F 44% 30.17 in 10.0 mi WSW 9.2 mph - N/A   Clear
2:56 PM 33.8 °F 25.8 °F 14.0 °F 44% 30.17 in 10.0 mi WSW 10.4 mph 16.1 mph N/A   Clear
3:16 PM 33.8 °F 24.3 °F 12.2 °F 41% 30.17 in 10.0 mi WSW 13.8 mph - N/A   Clear
3:36 PM 35.6 °F 26.6 °F 12.2 °F 38% 30.17 in 10.0 mi SW 13.8 mph 19.6 mph N/A   Clear
3:56 PM 35.6 °F 26.2 °F 12.2 °F 38% 30.16 in 10.0 mi SW 15.0 mph 19.6 mph N/A   Clear
4:16 PM 35.6 °F 26.6 °F 10.4 °F 35% 30.16 in 10.0 mi SW 13.8 mph 23.0 mph N/A   Clear
4:36 PM 35.6 °F 27.1 °F 12.2 °F 38% 30.16 in 10.0 mi SW 12.7 mph 19.6 mph N/A   Clear
4:56 PM 37.4 °F 29.3 °F 10.4 °F 33% 30.16 in 10.0 mi SW 12.7 mph 18.4 mph N/A   Clear
5:16 PM 35.6 °F 28.0 °F 14.0 °F 41% 30.16 in 10.0 mi WSW 10.4 mph - N/A   Clear
5:36 PM 35.6 °F 26.6 °F 12.2 °F 38% 30.15 in 10.0 mi WSW 13.8 mph - N/A   Clear
5:56 PM 35.6 °F 28.0 °F 12.2 °F 38% 30.15 in 10.0 mi WSW 10.4 mph - N/A   Clear
6:16 PM 35.6 °F 26.6 °F 10.4 °F 35% 30.14 in 10.0 mi WSW 13.8 mph - N/A   Clear
6:36 PM 33.8 °F 23.2 °F 10.4 °F 38% 30.14 in 10.0 mi WSW 17.3 mph - N/A   Clear
6:56 PM 33.8 °F 25.8 °F 10.4 °F 38% 30.14 in 10.0 mi WSW 10.4 mph - N/A   Clear
7:16 PM 33.8 °F 24.8 °F 12.2 °F 41% 30.14 in 10.0 mi SW 12.7 mph - N/A   Clear
7:36 PM 33.8 °F 24.8 °F 12.2 °F 41% 30.14 in 10.0 mi WSW 12.7 mph - N/A   Clear
7:56 PM 33.8 °F 24.8 °F 12.2 °F 41% 30.14 in 10.0 mi SW 12.7 mph - N/A   Clear
8:16 PM 33.8 °F 24.8 °F 12.2 °F 41% 30.14 in 10.0 mi SW 12.7 mph 19.6 mph N/A   Clear
8:36 PM 30.2 °F 23.4 °F 12.2 °F 47% 30.14 in 10.0 mi West 6.9 mph - N/A   Clear
8:56 PM 30.2 °F 23.4 °F 12.2 °F 47% 30.13 in 10.0 mi SW 6.9 mph - N/A   Clear
9:16 PM 28.4 °F 22.2 °F 8.6 °F 43% 30.13 in 10.0 mi WSW 5.8 mph - N/A   Clear
9:36 PM 26.6 °F 14.3 °F 10.4 °F 51% 30.12 in 10.0 mi WSW 16.1 mph - N/A   Clear
9:56 PM 28.4 °F 19.1 °F 10.4 °F 47% 30.12 in 10.0 mi SW 10.4 mph - N/A   Clear
10:16 PM 26.6 °F 18.2 °F 8.6 °F 47% 30.12 in 10.0 mi WSW 8.1 mph - N/A   Clear
10:36 PM 26.6 °F 16.2 °F 8.6 °F 47% 30.12 in 10.0 mi WSW 11.5 mph - N/A   Clear
10:56 PM 26.6 °F 18.2 °F 8.6 °F 47% 30.12 in 10.0 mi West 8.1 mph - N/A   Clear
11:16 PM 24.8 °F 14.6 °F 8.6 °F 50% 30.12 in 10.0 mi West 10.4 mph - N/A   Clear
11:36 PM 24.8 °F 15.3 °F 8.6 °F 50% 30.12 in 10.0 mi West 9.2 mph - N/A   Clear
11:56 PM 23.0 °F 10.1 °F 8.6 °F 54% 30.11 in 10.0 mi West 15.0 mph - N/A   Clear